Regional Weather Roundup
Issued by NWS

Home | Current Version | Previous Version | Text Only | Print | Product List | Glossary On
Versions: 1 2 3 4 5 6 7 8 9 10 11 12 13 14 15 16 17 18 19 20 21 22 23 24 25 26 27 28 29 30 31 32 33 34 35 36 37 38 39 40 41 42 43 44 45 46 47 48 49 50
000
ASUS43 KFSD 271510
RWRSD

WEATHER ROUNDUP FOR SOUTH DAKOTA
NATIONAL WEATHER SERVICE SIOUX FALLS SD
1000 AM CDT MON APR 27 2015

NOTE: "FAIR" INDICATES FEW OR NO CLOUDS BELOW 12,000 FEET WITH NO
SIGNIFICANT WEATHER AND/OR OBSTRUCTIONS TO VISIBILITY.


SDZ001>005-009-010-012>017-271600-
NORTHWEST AND NORTH CENTRAL SOUTH DAKOTA

CITY           SKY/WX    TMP DP  RH WIND       PRES   REMARKS
BUFFALO          N/A     40  39  97 NW15      30.25R
FAITH            N/A     46  41  82 NW15      30.27R
MOBRIDGE       PTSUNNY   50  44  80 NW6       30.22R
$$

SDZ012>016-024>037-041>051-057-063-072>074-271600-
SOUTHWEST AND SOUTH CENTRAL SOUTH DAKOTA

CITY           SKY/WX    TMP DP  RH WIND       PRES   REMARKS
RAPID CTY ARPT CLOUDY    43  39  86 N21       30.28R
PIERRE         MOSUNNY   56  36  47 VRB3      30.22S
CUSTER         CLOUDY    41  37  86 VRB3      30.26R
ELLSWORTH AFB  CLOUDY    42  39  89 N18       30.28
PHILIP         PTSUNNY   56  46  69 NW14      30.25R
PINE RIDGE     CLOUDY    48  43  82 N6        30.26R
SPEARFISH      LGT RAIN  37  37 100 NW12      30.34R
WINNER         FAIR      58  36  43 W6        30.24R
$$

SDZ004>011-016>023-039-040-271600-
NORTHEAST SOUTH DAKOTA

CITY           SKY/WX    TMP DP  RH WIND       PRES   REMARKS
ABERDEEN       SUNNY     59  26  28 S7        30.26R
WATERTOWN      NOT AVBL
SISSETON         N/A     61  20  20 VRB6      30.24R
$$

SDZ017-020-022-023-036>040-048>070-271600-
SOUTHEAST SOUTH DAKOTA

CITY           SKY/WX    TMP DP  RH WIND       PRES   REMARKS
SIOUX FALLS    MOSUNNY   56  31  38 E5        30.24R
HURON          SUNNY     55  30  38 CALM      30.24S
CHAMBERLAIN    SUNNY     55  37  51 CALM      30.24R
MITCHELL       SUNNY     52  35  52 CALM      30.24R
YANKTON        SUNNY     54  36  50 CALM      30.22S
$$

ABBREVIATIONS USED IN REMARKS
   TC - TEMPERATURE IN CELSIUS
  WCI - WIND CHILL INDEX
   HX - HEAT INDEX
  VSB - VISIBILITY




USA.gov is the U.S. government's official web portal to all federal, state and local government web resources and services.